STARLINK-32023, 60197

Orbit data source: Space-Track

STARLINK-32023, 60197 is a payload satellite owned by SpaceX/Seattle (US) in LEO that was launched on Wed, 03 Jul 2024 UTC via an FALCON 9 launch vehicle from the Air Force Eastern Test Range (AFETR). Payload-class satellites include a variety of spacecraft equipped with specific instruments for various scientific and technological missions. These include communications satellites like Starlink; space stations such as the ISS; scientific satellites like the Hubble; Earth observation satellites from companies like Planet Labs, Umbra, and HawkEye 360; GPS; miniature CubeSats for education and research; and military/defense satellites.

Loading next visibility...
Identifier
60197, 2024-124Q
Orbit
LEO
Country
Flag of USUS
Related business
Manufacturer
SpaceX/Seattle
Mission
Operational Commercial Communications
Bus & Motor
STARLINK V2M, Unknown motor
Mass
730 kg wet, ~700 kg dry
Launch date (UTC)
2024-07-03 (1 year ago)
Launch vehicle
FALCON 9
Launch site
Air Force Eastern Test Range (AFETR)
Object type
Payload
Rocket body
Debris
Shape & HBR
Box + 2 Pan, 17.7 m
Radar Cross Section
33.884 m², Large (>1 m²)

Expand to show TLE details & history
Last TLE update: 1 day ago

TLE from 1 day ago
0 STARLINK-32023
1 60197U 24124Q   25309.67037310  .00005032  00000-0  18191-3 0  9995
2 60197  53.1594 178.8485 0001226  77.5090 282.6048 15.30201163 75309
Epoch: 2025-11-05T16:05Z
TLE epoch observation values (Epoch: 2025-11-05T16:05:20.235Z)
Latitude
-0.00003°
Longitude
-107.62554°
Altitude
475.928 km
Speed
7.629 km/s
True Right ascension
11h 55m 23s
True Declination
0° 00' 00"
Sunlit
Object was in daylight at epoch
Visualization orbit readout
Latitude
Unknown
Longitude
Unknown
Altitude
Unknown
Speed
Unknown
Apparent Right ascension
Unknown
Apparent Declination
Unknown
Sunlit
N/A
Visualization observer readout
Local Sidereal Time
15:32:16
Azimuth
Unknown
Elevation
Unknown
Doppler factor
Unknown
Orbital elements
Apogee altitude
476.308 km
Perigee altitude
474.628 km
Semi-major axis
6,853.605 km
Eccentricity
0.00012
Inclination
53.1594°
RAAN
178.8485°
Arg. of periapsis
77.509°
True anomaly
282.59109°
Mean anomaly
282.6048°
Eccentric anomaly
282.59794°
Mean motion
3.82529 °/min
Orbital period
94.11 mins
BSTAR
0.00018191
Loading maneuver chart data...
Computing Atmospheric mass density...
Loading historical data...
Loading historical data...
Loading historical data...
Loading historical data...
Loading historical data...
Loading historical data...
Loading historical data...

Documentation

Showing up to 5 results
|